Weather History for Coatesville, PA

Change the Weather History Date:

Friday, November 23, 2012

  Actual Average (KLNS) Record (KLNS)
Temperature  
Mean Temperature 47 °F -  
Max Temperature 57 °F 50 °F 69 °F (1979)
Min Temperature 37 °F 31 °F 15 °F (1984)
Degree Days  
Heating Degree Days 18    
Moisture  
Dew Point 35 °F    
Average Humidity 65    
Maximum Humidity 100    
Minimum Humidity 38    
Precipitation  
Precipitation 0.00 in - - ()
Sea Level Pressure  
Sea Level Pressure 29.93 in    
Wind  
Wind Speed 4 mph (SW)    
Max Wind Speed 25 mph    
Max Gust Speed 37 mph    
Visibility 9 miles    
Events      
Averages and records for this station are not official NWS values.
T = Trace of Precipitation, MM = Missing Value Source: NWS Daily Summary

Daily Weather History Graph

Daily Weather History Graph

Search for Another Location

Airport:

Trip Planner

Search our weather history database for the weather conditions in past years. The results will help you decide how hot, cold, wet, or windy it might be!

Date:

Astronomy

Nov. 23, 2012 Rise Set
Actual Time 6:58 AM EST 4:41 PM EST
Civil Twilight 6:28 AM EST 5:11 PM EST
Nautical Twilight 5:55 AM EST 5:44 PM EST
Astronomical Twilight 5:22 AM EST 6:16 PM EST
Moon 1:55 PM EST (11/23) 2:14 AM EST (11/23)
Length of Visible Light 10h 42m
Length of Day
9h 43m
Waxing Gibbous, 79% of the Moon is Illuminated
Nov 23
Waxing Gibbous
Nov 28
Full
Dec 6
Last Quarter
Dec 13
New
Dec 20
First Quarter

Hourly Weather History & Observations

Time (EST) Temp. Windchill Dew Point Humidity Pressure Visibility Wind Dir Wind Speed Gust Speed Precip Events Conditions
12:15 AM 39.2 °F - 32.0 °F 75% 30.15 in 10.0 mi Calm Calm - N/A   Clear
12:35 AM 39.2 °F - 33.8 °F 81% 30.15 in 10.0 mi Calm Calm - N/A   Clear
12:55 AM 39.2 °F - 33.8 °F 81% 30.14 in 10.0 mi Calm Calm - N/A   Clear
1:15 AM 39.2 °F - 33.8 °F 81% 30.14 in 10.0 mi Calm Calm - N/A   Clear
1:35 AM 39.2 °F - 33.8 °F 81% 30.13 in 10.0 mi Calm Calm - N/A   Clear
1:55 AM 39.2 °F 37.0 °F 35.6 °F 87% 30.13 in 9.0 mi South 3.5 mph - N/A   Clear
2:15 AM 39.2 °F - 37.4 °F 93% 30.12 in 8.0 mi Calm Calm - N/A   Clear
2:35 AM 39.2 °F - 37.4 °F 93% 30.11 in 8.0 mi Calm Calm - N/A   Clear
2:55 AM 37.4 °F - 35.6 °F 93% 30.12 in 6.0 mi Calm Calm - N/A   Clear
3:15 AM 41.0 °F 39.0 °F 39.2 °F 93% 30.11 in 8.0 mi WSW 3.5 mph - N/A   Clear
3:55 AM 42.8 °F - 39.2 °F 87% 30.10 in 8.0 mi Calm Calm - N/A   Clear
4:15 AM 42.8 °F - 39.2 °F 87% 30.09 in 8.0 mi Calm Calm - N/A   Clear
4:35 AM 39.2 °F 35.9 °F 37.4 °F 93% 30.09 in 7.0 mi WSW 4.6 mph - N/A   Clear
4:55 AM 37.4 °F 34.9 °F 35.6 °F 93% 30.09 in 5.0 mi West 3.5 mph - N/A   Clear
5:15 AM 39.2 °F 37.0 °F 37.4 °F 93% 30.09 in 7.0 mi West 3.5 mph - N/A   Clear
5:35 AM 41.0 °F 39.0 °F 37.4 °F 87% 30.08 in 8.0 mi WSW 3.5 mph - N/A   Clear
5:55 AM 41.0 °F 39.0 °F 37.4 °F 87% 30.07 in 8.0 mi SSW 3.5 mph - N/A   Clear
6:15 AM 39.2 °F 37.0 °F 37.4 °F 93% 30.06 in 7.0 mi South 3.5 mph - N/A   Clear
6:35 AM 37.4 °F 34.9 °F 35.6 °F 93% 30.05 in 1.5 mi SW 3.5 mph - N/A   Clear
6:55 AM 37.4 °F 33.8 °F 37.4 °F 100% 30.04 in 5.0 mi SW 4.6 mph - N/A   Clear
7:15 AM 41.0 °F 38.0 °F 37.4 °F 87% 30.04 in 8.0 mi SW 4.6 mph - N/A   Clear
7:35 AM 42.8 °F 41.1 °F 37.4 °F 81% 30.04 in 8.0 mi SW 3.5 mph - N/A   Clear
7:55 AM 42.8 °F 40.1 °F 37.4 °F 81% 30.03 in 9.0 mi SW 4.6 mph - N/A   Clear
8:15 AM 42.8 °F 41.1 °F 37.4 °F 81% 30.03 in 8.0 mi SW 3.5 mph - N/A   Clear
8:35 AM 44.6 °F 41.4 °F 37.4 °F 76% 30.03 in 8.0 mi SW 5.8 mph - N/A   Clear
8:55 AM 44.6 °F 42.2 °F 37.4 °F 76% 30.03 in 9.0 mi SSW 4.6 mph - N/A   Clear
9:15 AM 46.4 °F 44.3 °F 37.4 °F 71% 30.02 in 10.0 mi SSW 4.6 mph - N/A   Clear
9:35 AM 46.4 °F 44.3 °F 37.4 °F 71% 30.01 in 10.0 mi South 4.6 mph - N/A   Clear
10:15 AM 48.2 °F - 39.2 °F 71% 29.99 in 9.0 mi South 5.8 mph - N/A   Clear
10:35 AM 51.8 °F - 37.4 °F 58% 29.99 in 10.0 mi South 3.5 mph - N/A   Clear
10:55 AM 53.6 °F - 35.6 °F 51% 29.98 in 10.0 mi SSW 6.9 mph - N/A   Clear
11:15 AM 53.6 °F - 35.6 °F 51% 29.96 in 10.0 mi SSW 8.1 mph - N/A   Clear
11:35 AM 53.6 °F - 35.6 °F 51% 29.94 in 10.0 mi SSW 6.9 mph - N/A   Clear
11:55 AM 55.4 °F - 33.8 °F 44% 29.93 in 10.0 mi SSW 6.9 mph - N/A   Clear
12:15 PM 55.4 °F - 32.0 °F 41% 29.91 in 10.0 mi SSW 5.8 mph - N/A   Clear
12:35 PM 57.2 °F - 32.0 °F 38% 29.89 in 10.0 mi South 6.9 mph - N/A   Clear
12:55 PM 57.2 °F - 32.0 °F 38% 29.88 in 10.0 mi SSW 6.9 mph 16.1 mph N/A   Clear
1:15 PM 57.2 °F - 32.0 °F 38% 29.87 in 10.0 mi South 8.1 mph - N/A   Clear
1:35 PM 57.2 °F - 32.0 °F 38% 29.85 in 10.0 mi SSW 6.9 mph 17.3 mph N/A   Clear
1:55 PM 57.2 °F - 32.0 °F 38% 29.84 in 10.0 mi South 10.4 mph 17.3 mph N/A   Clear
2:15 PM 57.2 °F - 32.0 °F 38% 29.83 in 10.0 mi SSW 5.8 mph - N/A   Clear
2:35 PM 55.4 °F - 32.0 °F 41% 29.82 in 10.0 mi South 9.2 mph - N/A   Clear
2:55 PM 53.6 °F - 32.0 °F 44% 29.81 in 10.0 mi South 4.6 mph - N/A   Clear
3:15 PM 53.6 °F - 32.0 °F 44% 29.81 in 10.0 mi SSW 5.8 mph - N/A   Clear
3:35 PM 53.6 °F - 32.0 °F 44% 29.80 in 10.0 mi South 4.6 mph - N/A   Clear
3:55 PM 53.6 °F - 32.0 °F 44% 29.80 in 10.0 mi South 5.8 mph - N/A   Clear
4:15 PM 53.6 °F - 32.0 °F 44% 29.80 in 10.0 mi SW 3.5 mph - N/A   Mostly Cloudy
4:35 PM 53.6 °F - 32.0 °F 44% 29.81 in 10.0 mi SW 3.5 mph - N/A   Overcast
5:15 PM 51.8 °F - 32.0 °F 47% 29.80 in 10.0 mi SW 3.5 mph - N/A   Mostly Cloudy
5:35 PM 51.8 °F - 32.0 °F 47% 29.80 in 10.0 mi SSW 3.5 mph - N/A   Overcast
5:55 PM 51.8 °F - 32.0 °F 47% 29.80 in 10.0 mi Calm Calm - N/A   Overcast
6:15 PM 51.8 °F - 33.8 °F 50% 29.80 in 10.0 mi Calm Calm - N/A   Overcast
6:55 PM 51.8 °F - 33.8 °F 50% 29.79 in 10.0 mi WSW 3.5 mph - N/A   Overcast
7:15 PM 51.8 °F - 33.8 °F 50% 29.79 in 10.0 mi SW 3.5 mph - N/A   Mostly Cloudy
7:35 PM 51.8 °F - 33.8 °F 50% 29.78 in 10.0 mi WSW 4.6 mph - N/A   Scattered Clouds
7:55 PM 51.8 °F - 33.8 °F 50% 29.78 in 10.0 mi West 3.5 mph - N/A   Mostly Cloudy
8:15 PM 51.8 °F - 35.6 °F 54% 29.77 in 10.0 mi WSW 3.5 mph - N/A   Mostly Cloudy
8:35 PM 50.0 °F - 35.6 °F 58% 29.77 in 10.0 mi WSW 3.5 mph - N/A   Mostly Cloudy
8:55 PM 50.0 °F - 35.6 °F 58% 29.77 in 10.0 mi WSW 3.5 mph - N/A   Overcast
9:15 PM 48.2 °F - 37.4 °F 66% 29.77 in 10.0 mi West 4.6 mph - N/A   Overcast
9:55 PM 48.2 °F - 37.4 °F 66% 29.76 in 10.0 mi WNW 12.7 mph 21.9 mph N/A   Scattered Clouds
10:15 PM 48.2 °F - 37.4 °F 66% 29.76 in 10.0 mi WNW 15.0 mph - N/A   Clear
10:35 PM 48.2 °F - 35.6 °F 62% 29.75 in 10.0 mi WNW 19.6 mph 25.3 mph N/A   Scattered Clouds
10:55 PM 48.2 °F - 33.8 °F 58% 29.76 in 10.0 mi WNW 21.9 mph 27.6 mph N/A   Partly Cloudy
11:15 PM 46.4 °F 39.2 °F 30.2 °F 53% 29.76 in 10.0 mi WNW 18.4 mph 31.1 mph N/A   Clear
11:35 PM 46.4 °F 39.0 °F 30.2 °F 53% 29.76 in 10.0 mi West 19.6 mph 26.5 mph N/A   Clear
11:55 PM 46.4 °F 37.9 °F 30.2 °F 53% 29.76 in 10.0 mi WNW 25.3 mph 36.8 mph N/A   Clear